Location: Black River Observatory
(43.1000°N, 82.6200°W)
Time: 14:44:32
(UTC-04:00)

Daily predictions for brighter satellites

Satellite Brightness Start Highest point End
(mag) Time Altitude Azimuth Time Altitude Azimuth Time Altitude Azimuth
FENGYUN 3A 3.8 20:32:20 10° SSE 20:37:31 54° ENE 20:42:44 10° N
Cosmos 1656 4.5 20:35:18 10° SSE 20:40:02 29° ESE 20:44:44 10° NE
FengYun 1-2 T 4.3 20:34:50 10° SSE 20:40:28 84° ENE 20:46:06 10° NNW
Cosmos 2227 Rocket 2.3 20:36:57 10° NNW 20:42:37 69° ENE 20:48:14 10° SSE
NOSS 2-1 (D) 4.2 20:39:16 10° SW 20:43:06 58° NW 20:47:34 10° NNE
Tiangong 1 1.0 20:40:51 10° W 20:43:58 87° S 20:47:03 10° E
NOSS 2-1 (C) 4.1 20:40:17 10° SW 20:44:08 58° NW 20:48:36 10° NNE
Cosmos 1821 Rocket 4.0 20:38:28 10° S 20:44:34 86° E 20:50:42 10° N
Helios 1A 3.7 20:40:42 10° S 20:44:48 57° W 20:48:57 10° NNW
Cosmos 1605 Rocket 4.2 20:41:35 10° SSE 20:47:43 54° E 20:53:47 10° NNE
EP 1 4.1 20:49:10 10° SSW 20:51:45 74° SE 20:54:24 10° NE
Lacrosse 5 2.7 20:47:25 10° NW 20:52:10 38° NNE 20:56:52 10° E
ERS-1 Rocket 3.9 20:48:53 10° SE 20:53:10 29° ENE 20:57:28 10° N
Cosmos 1939 Rocket 4.5 20:50:11 10° ESE 20:53:13 20° ENE 20:56:17 10° NNE
Cosmos 1461 3.0 20:51:02 10° NW 20:55:07 74° WSW 20:59:02 10° SSE
Cosmos 1346 Rocket 2.9 20:52:34 10° NNW 20:56:33 84° W 21:00:32 10° S
DELTA 2 R/B (1) 3.9 20:51:08 10° W 20:56:35 55° S 21:01:40 12° ESE
Cosmos 2082 3.7 20:52:02 10° NNW 20:57:42 84° ENE 21:03:19 10° SSE
Cosmos 2297 Rocket 2.3 20:52:15 10° NNW 20:57:54 66° ENE 21:03:31 10° SE
Meteor 1-5 Rocket 4.2 20:53:44 10° S 20:59:04 86° W 21:04:37 10° N
Cosmos 1898 Rocket 4.0 20:58:04 10° N 21:03:09 42° ENE 21:07:49 12° SE
SPOT 5 4.5 21:00:31 11° ESE 21:03:32 18° ENE 21:06:45 10° NNE
H-2A R/B 3.6 21:03:38 12° E 21:05:50 18° ENE 21:08:38 10° NNE
Cosmos 1626 Rocket 3.6 21:03:21 10° N 21:07:43 60° E 21:12:01 10° SSE
Cosmos 1455 Rocket 3.5 21:08:46 10° SSW 21:13:04 65° W 21:17:25 10° N
Cosmos 1515 4.0 21:09:32 10° N 21:13:17 47° ENE 21:16:39 12° SSE
Cosmos 2123 Rocket 4.2 21:10:10 10° NNW 21:16:20 74° W 21:22:28 10° S
Cosmos 1602 Rocket 3.5 21:12:34 10° N 21:17:03 76° E 21:21:28 10° SSE
RESURS DK-1 3.2 21:14:19 10° N 21:18:07 34° ENE 21:20:28 19° ESE
Cosmos 468 Rocket 4.2 21:14:52 10° S 21:19:42 44° ESE 21:24:34 10° NNE
Cosmos 2084 3.4 21:17:00 10° NNW 21:21:03 68° NE 21:23:56 20° SE
CZ-4 DEB 2.8 21:22:56 20° SE 21:24:53 53° ENE 21:27:59 10° N
SJ-11-01 4.3 21:20:46 12° SSE 21:25:02 60° ENE 21:29:39 10° N
Cosmos 220 Rocket 4.1 21:23:49 10° NNW 21:28:02 76° WSW 21:31:56 12° SSE
Cosmos 1743 3.6 21:26:39 22° SE 21:28:18 30° E 21:31:44 10° NNE
Cosmos 1459 Rocket 4.2 21:22:57 10° SSE 21:28:37 44° E 21:34:22 10° NNE
Cosmos 1814 Rocket 4.3 21:25:04 10° S 21:30:09 47° ESE 21:35:14 10° NNE
SL-24 R/B - RUBIN 2 4.3 21:26:50 10° SSW 21:32:42 80° ESE 21:39:15 10° NE
Cosmos 1066 Rocket 4.2 21:27:30 10° N 21:33:09 67° ENE 21:38:16 13° SSE
Cosmos 1697 Rocket 2.7 21:29:45 10° S 21:35:19 61° ESE 21:40:52 10° NNE
OAO 2 Rocket 4.2 21:31:55 10° WSW 21:36:23 33° S 21:38:28 24° SE
SL-16 R/B 4.1 21:46:17 13° ENE 21:46:17 13° ENE 21:47:21 10° ENE
Cosmos 2058 Rocket 4.3 21:45:01 24° E 21:45:01 24° E 21:48:37 10° NE
Cosmos 858 Rocket 4.5 21:41:02 10° NNW 21:46:21 88° ENE 21:49:56 21° SSE
ALOS 4.1 21:44:58 10° SSW 21:49:02 29° W 21:53:08 10° NW
ASTEX 1 4.0 21:46:43 10° NNE 21:51:22 37° E 21:52:41 32° ESE
Cosmos 1606 Rocket 3.9 21:50:20 33° SE 21:51:39 43° E 21:55:52 10° NNE
Cosmos 1975 4.0 21:48:58 10° SSW 21:52:54 45° WNW 21:56:52 10° N
ARGOS 4.1 21:53:32 26° E 21:55:03 30° ENE 21:59:42 10° N
Cosmos 1842 4.3 21:51:51 10° NNE 21:55:11 29° ENE 21:55:11 29° ENE
USA 186 4.4 21:54:33 10° SW 21:56:45 18° W 21:58:52 10° NW
Cosmos 1980 Rocket 2.2 21:52:49 10° S 21:58:20 57° ESE 22:03:56 10° NNE
Lacrosse 5 rocket 3.1 21:57:15 10° WNW 22:00:05 21° SW 22:01:42 16° SSW
Cosmos 1802 Rocket 4.0 21:56:15 10° S 22:02:36 71° E 22:09:01 10° NNE
Envisat 3.0 22:00:26 24° S 22:03:36 84° WSW 22:08:43 10° NNW
Iridium 4 Rocket 4.4 22:01:15 10° NNW 22:06:04 44° W 22:10:27 10° SSW
Cosmos 1937 Rocket 3.6 22:01:14 10° NNW 22:06:31 78° WSW 22:09:16 29° S
MetOp-B 4.2 22:07:39 38° SE 22:09:36 62° ENE 22:14:54 10° N
Cosmos 1726 Rocket 3.4 22:14:23 56° SE 22:15:04 66° E 22:19:28 10° NNE
Cosmos 1666 3.5 22:16:27 36° NE 22:16:27 36° NE 22:19:03 10° NNE
Cosmos 2016 Rocket 3.8 22:11:10 20° S 22:15:30 75° E 22:21:43 10° N
H-2A R/B 3.2 22:17:51 24° ENE 22:17:55 24° ENE 22:21:50 10° NNE
Cosmos 990 Rocket 4.0 22:13:45 10° NNW 22:19:01 81° WSW 22:20:53 41° S
Tiangong 1 2.4 22:17:21 10° W 22:19:22 34° WSW 22:19:22 34° WSW
CZ-4B R/B 4.3 22:17:57 10° NNE 22:21:05 30° ENE 22:21:05 30° ENE
Cosmos 2263 Rocket 3.4 22:19:56 10° N 22:24:38 27° NE 22:25:29 26° ENE
Cosmos 1939 Rocket 4.3 22:25:54 23° SSW 22:27:54 36° W 22:31:48 10° NNW
Cosmos 2173 Rocket 4.3 22:21:40 10° SSW 22:27:59 66° W 22:34:19 10° N
Cosmos 1825 Rocket 4.1 22:23:50 10° NNW 22:28:10 55° W 22:29:39 36° SSW
Cosmos 2322 Rocket 3.0 22:32:37 34° ENE 22:32:37 34° ENE 22:36:25 10° NE
ERS-1 Rocket 4.3 22:28:09 15° SSW 22:31:50 35° W 22:36:25 10° NNW
Cosmos 2098 Rocket 3.9 22:29:39 30° S 22:33:15 78° E 22:39:02 10° N
Meteor 1-21 4.5 22:27:37 10° NNW 22:33:22 69° W 22:35:57 34° S
SL-08 RB Rocket 4.1 22:33:41 50° ENE 22:33:41 50° ENE 22:38:01 10° N
BREEZE-M DEB (TANK) 4.3 22:30:14 10° WNW 22:34:27 89° NNE 22:39:15 35° ESE
Cosmos 836 Rocket 4.4 22:34:20 62° ESE 22:34:31 63° ESE 22:39:47 10° NNE
Lacrosse 5 2.4 22:30:23 10° WNW 22:35:13 46° SW 22:36:04 42° SSW
Cosmos 1340 3.5 22:32:52 10° NNW 22:36:30 45° W 22:36:49 44° WSW
SPOT 1/Viking Rocket 3.4 22:36:07 63° SE 22:36:50 74° ENE 22:42:03 10° N
YAOGAN 6 3.1 22:38:50 59° WNW 22:38:50 59° WNW 22:42:06 10° NNW
Cosmos 1953 Rocket 4.0 22:34:06 10° NNW 22:38:29 59° W 22:39:18 50° SW
SPOT 5 3.3 22:39:47 42° SSW 22:41:12 59° WSW 22:45:59 10° NNW
Cosmos 2297 Rocket 4.5 22:37:38 10° WNW 22:41:20 18° W 22:45:02 10° SW
H-2A R/B 2.9 22:40:46 37° SW 22:41:33 41° W 22:45:29 10° NNW
Cosmos 2360 4.1 22:38:32 19° SSW 22:42:44 89° W 22:48:30 10° NNE
Meteor 2-9 Rocket 4.0 22:41:32 56° S 22:42:45 85° E 22:48:11 10° NNE
USA 245 4.4 22:41:38 50° SSE 22:43:26 90° WSW 22:49:50 10° NNW
Cosmos 1864 Rocket 4.3 22:41:44 48° S 22:43:35 81° E 22:49:43 10° N
Cosmos 1763 Rocket 3.7 22:41:43 18° SSW 22:45:33 65° WNW 22:50:37 10° NNE
Cosmos 2227 4.5 22:43:09 10° NNW 22:48:49 63° WSW 22:50:02 50° SSW
Tsikada Rocket 4.0 22:43:17 10° N 22:49:45 89° W 22:51:22 54° S
Cosmos 1125 Rocket 3.3 22:46:19 10° NNW 22:51:33 81° ENE 22:51:36 81° E
Cosmos 405 Rocket 4.4 22:48:11 10° N 22:50:05 26° NNE 22:50:05 26° NNE
Cosmos 2228 3.7 22:54:37 48° N 22:54:37 48° N 22:57:46 10° N
Landsat 7 4.3 22:55:38 51° NE 22:55:38 51° NE 22:59:35 10° N
RESURS DK-1 4.3 22:52:47 10° NW 22:55:59 22° WSW 22:56:25 21° WSW
Cosmos 1758 Rocket 4.4 22:53:05 10° NNW 22:57:12 42° W 22:57:28 41° WSW
Cosmos 2346 Rocket 4.5 22:56:48 10° N 23:02:59 63° E 23:03:02 63° E
USA 215 3.4 23:03:14 52° E 23:04:42 65° NE 23:11:10 10° NW
Cosmos 841 Rocket 4.3 23:04:54 21° SW 23:08:10 48° WNW 23:13:14 10° N
Terra 2.6 23:11:26 44° NNE 23:11:26 44° NNE 23:14:54 10° N
CZ-4 R/B 4.5 23:07:32 10° NNE 23:10:57 48° NNE 23:10:57 48° NNE
BREEZE-M DEB (TANK) 4.3 23:10:30 10° WNW 23:11:27 22° W 23:11:27 22° W
Cosmos 1725 Rocket 4.4 23:12:55 37° SW 23:15:15 58° W 23:21:26 10° N
Meteor 2-17 Rocket 4.3 23:20:18 77° WSW 23:20:36 80° W 23:26:41 10° N
Cosmos 540 Rocket 4.3 23:25:35 45° NNE 23:25:35 45° NNE 23:29:06 10° NNE
SL-16 R/B 2.4 23:28:06 68° NNW 23:28:06 68° NNW 23:33:13 10° NNE
ARGOS 4.2 23:35:03 37° W 23:35:09 37° W 23:40:10 10° NNW
Cosmos 1844 Rocket 4.3 23:32:33 10° N 23:36:28 23° NE 23:36:28 23° NE
BREEZE-M DEB (TANK) 3.8 23:31:26 10° W 23:38:01 49° WNW 23:38:01 49° WNW
Cosmos 2233 Rocket 4.3 23:39:50 58° W 23:40:19 59° W 23:46:30 10° N
Cosmos 2360 Rocket 3.7 23:45:50 26° NE 23:45:50 26° NE 23:48:15 10° NNE
Cosmos 1980 Rocket 4.3 23:38:08 10° WSW 23:42:44 25° NW 23:47:22 10° N
